Showing default

IRIDIUM 143, 43258

Orbit data source: Space-Track

IRIDIUM 143, 43258 is a payload satellite owned by Iridium (US) in LEO that was launched on Fri, 30 Mar 2018 UTC via an FALCON 9 launch vehicle from the Air Force Western Test Range (AFWTR). Payload-class satellites include a variety of spacecraft equipped with specific instruments for various scientific and technological missions. These include communications satellites like Starlink; space stations such as the ISS; scientific satellites like the Hubble; Earth observation satellites from companies like Planet Labs, Umbra, and HawkEye 360; GPS; miniature CubeSats for education and research; and military/defense satellites.

Loading next visibility...
Identifier
43258, 2018-030K
Orbit
LEO
Country
Flag of USUS
Related business
Manufacturer
OATK SSG Gilbert
Mission
Operational Commercial Communications
Bus & Motor
ELITEBUS, Unknown motor
Mass
860 kg wet, 700 kg dry
Launch date (UTC)
2018-03-30 (8 years ago)
Launch vehicle
FALCON 9
Launch site
Air Force Western Test Range (AFWTR)
Object type
Payload
Rocket body
Debris
Shape & HBR
Trap Box + 2 Pan, 4.8 m
Radar Cross Section
10.154 m², Large (>1 m²)

Expand to show TLE details & history
Last TLE update: 10 hours ago

TLE from 10 hours ago
0 IRIDIUM 143
1 43258U 18030K   26256.03744249 -.00000016  00000-0 -12812-4 0  9995
2 43258  86.3916 253.8148 0002128  86.8642 273.2797 14.34217200442680
Epoch: 2026-09-13T00:53Z
TLE epoch observation values (Epoch: 2026-09-13T00:53:55.031Z)
Latitude
-0.00003°
Longitude
-111.70234°
Altitude
780.633 km
Speed
7.464 km/s
True Right ascension
16h 55m 15s
True Declination
0° 00' 00"
Sunlit
Object was in daylight at epoch
Visualization orbit readout
Latitude
Unknown
Longitude
Unknown
Altitude
Unknown
Speed
Unknown
Apparent Right ascension
Unknown
Apparent Declination
Unknown
Sunlit
N/A
Visualization observer readout
Local Sidereal Time
03:32:38
Azimuth
Unknown
Elevation
Unknown
Doppler factor
Unknown
Orbital elements
Apogee altitude
776.156 km
Perigee altitude
773.111 km
Semi-major axis
7,152.771 km
Eccentricity
0.00021
Inclination
86.3916°
RAAN
253.8148°
Arg. of periapsis
86.8642°
True anomaly
273.25535°
Mean anomaly
273.2797°
Eccentric anomaly
273.26753°
Mean motion
3.58783 °/min
Orbital period
100.34 mins
BSTAR
-0.000012812
Loading maneuver chart data...
Computing Atmospheric mass density...
Loading historical data...
Loading historical data...
Loading historical data...
Loading historical data...
Loading historical data...
Loading historical data...
Loading historical data...

Documentation

Showing up to 5 results
|